Regional Weather Roundup
Issued by NWS

Home | Current Version | Previous Version | Graphics & Text | Print | Product List | Glossary On
Versions: 1 2 3 4 5 6 7 8 9 10 11 12 13 14 15 16 17 18 19 20 21 22 23 24 25 26 27 28 29 30 31 32 33 34 35 36 37 38 39 40 41 42 43 44 45 46 47 48 49 50
000
ASUS45 KTFX 041410
RWRMT
MONTANA REGIONAL WEATHER ROUNDUP
NATIONAL WEATHER SERVICE GREAT FALLS MT
800 AM MDT TUE AUG 04 2015

NOTE: "FAIR" INDICATES FEW OR NO CLOUDS BELOW 12000 FEET WITH NO
SIGNIFICANT WEATHER AND/OR OBSTRUCTIONS TO VISIBILITY.

MTZ001>007-043-041500-
WEST OF THE DIVIDE

CITY           SKY/WX    TMP DP  RH WIND       PRES   REMARKS
KALISPELL      CLOUDY    64  55  72 CALM      29.93R
MISSOULA       PTSUNNY   65  45  48 CALM      29.98R
BUTTE          CLOUDY    64  48  56 VRB3      30.10R
MULLAN PASS    CLOUDY    58  41  53 VRB5      30.10S
DEER LODGE       N/A     63  46  55 CALM      30.07R
EUREKA           N/A     66  54  63 CALM      29.93R
HAMILTON         N/A     66  45  45 S10       29.99R
LIBBY            N/A     63  54  72 CALM      29.93R
PLAINS           N/A     66  48  52 CALM      29.95R
$$

MTZ008-052>055-041500-
SOUTHWEST MONTANA

CITY           SKY/WX    TMP DP  RH WIND       PRES   REMARKS
BOZEMAN        CLOUDY    66  53  63 S3        30.03S
DILLON         PTSUNNY   59  54  83 SW7       30.09S
W YELLOWSTONE  CLOUDY    54  52  94 CALM      30.21R
$$

MTZ009-010-012-014-046-048-049-054-041500-
EAST SLOPES AND CENTRAL MONTANA

CITY           SKY/WX    TMP DP  RH WIND       PRES   REMARKS
CUT BANK       CLOUDY    73  44  35 NW8       29.90S
GREAT FALLS    CLOUDY    70  50  49 CALM      29.92R
MALMSTROM AFB  CLOUDY    73  52  46 NE1       29.92S
HELENA         CLOUDY    73  49  42 CALM      29.95S
CONRAD           N/A     70  53  54 S2        29.94R
$$

MTZ011-013-016-021-045-047-050-051-041500-
NORTH CENTRAL MONTANA

CITY           SKY/WX    TMP DP  RH WIND       PRES   REMARKS
HAVRE          PTSUNNY   65  52  62 CALM      29.83R
LEWISTOWN      PTSUNNY   71  49  45 S3        29.95R
CHINOOK          N/A     64  52  63 E10G16    29.82S
FORT BENTON      N/A     73  46  38 SW7       29.88R
$$

MTZ017>020-022>027-061-062-041500-
NORTHEAST MONTANA

CITY           SKY/WX    TMP DP  RH WIND       PRES   REMARKS
GLASGOW        MOSUNNY   68  49  50 E20       29.88S
JORDAN           N/A     72  54  53 SE7       29.88S
SIDNEY         SUNNY    N/A N/A N/A SE8       29.95S
WOLF POINT     MOSUNNY   67  50  54 E14       29.92R
MALTA            N/A     67  51  56 NE6       29.83S
POPLAR           N/A     68  48  49 E12       29.92R
$$

MTZ028>42-056>058-041500-
SOUTHCENTRAL AND SOUTHEAST MONTANA

CITY           SKY/WX    TMP DP  RH WIND       PRES   REMARKS
BAKER          SUNNY     65  53  65 E15       29.97S
BILLINGS       CLOUDY    76  47  35 W9        29.94R
LIVINGSTON     PTSUNNY   71  48  43 W13       30.02R
MILES CITY     SUNNY     72  57  59 E6        29.90R
FORSYTH          N/A     72  57  60 E5        29.88S
LAUREL           N/A     71  47  42 CALM      29.94R
$$

REGIONAL REPORTS...DAKOTAS

CITY           SKY/WX    TMP DP  RH WIND       PRES   REMARKS
WILLISTON      MOSUNNY   70  51  51 E3        29.97S
MINOT          SUNNY     63  52  67 CALM      30.01S
DICKINSON      SUNNY     63  52  67 E9        29.98R
BEACH          FAIR      64  54  68 SE12      29.98S
CROSBY         FAIR      63  59  88 E3        30.01R
BISMARCK       SUNNY     64  53  67 E7        30.00F
GRAND FORKS    MOSUNNY   61  53  75 N3        30.03R
FARGO          SUNNY     61  52  72 SW5       30.03R
BUFFALO SD       N/A     68  57  68 E8        29.91R
RAPID CITY     PTSUNNY   67  60  78 S5        29.98R
$$

REGIONAL REPORTS...WYOMING/IDAHO/WASHINGTON

CITY           SKY/WX    TMP DP  RH WIND       PRES   REMARKS
GILLETTE       PTSUNNY   66  57  72 SE8       29.98S
SHERIDAN       PTSUNNY   67  51  56 CALM      29.95S
BUFFALO WY     PTSUNNY   69  49  48 N3        30.01R
CODY           CLOUDY    63  54  72 N5        30.04R
YELLOWSTONE LA   N/A     51  49  92 CALM      30.29R
IDAHO FALLS    SUNNY     60  55  83 N3        30.14R
SALMON         MOSUNNY   59  48  67 CALM      30.03S
BOISE          MOSUNNY   68  54  60 W3        30.00R
SPOKANE        PTSUNNY   65  46  50 S10       29.91R
$$

REGIONAL REPORTS...ALBERTA

CITY           SKY/WX    TMP DP  RH WIND       PRES   REMARKS
EDMONTON       PTSUNNY   61  55  82 NW6       29.83R
CALGARY        LGT RAIN  59  55  88 N9        29.93R
LETHBRIDGE     PTSUNNY   64  54  68 SW6       29.86R
MEDICINE HAT   CLOUDY    70  54  56 SW16      29.78R
WATERTON GATE    N/A     68  45  42 SW12G20     N/A
CARDSTON         N/A     66  46  48 NW3         N/A
MILK RIVER       N/A     73  48  40 SW6         N/A
$$

REGIONAL REPORTS...SASKATCHEWAN

CITY           SKY/WX    TMP DP  RH WIND       PRES   REMARKS
SWIFT CURRENT  SUNNY     64  54  68 SE13G18   29.86F
REGINA         PTSUNNY   64  50  59 SE13      29.98S
SASKATOON      CLOUDY    64  52  63 SE9       29.95F
CYPRESS HILLS    N/A     59  46  63 S10         N/A
VAL MARIE        N/A     68  50  52 SE16G22     N/A
ROCKGLEN         N/A     63  52  67 SE13G20     N/A
ASSINIBOIA       N/A    N/A N/A N/A SE13        N/A
$$



USA.gov is the U.S. government's official web portal to all federal, state and local government web resources and services.